www.pogodaiklimat.ru

Погода и климат >> Архив погоды >> Беларусь >> Пинск


АРХИВ ПОГОДЫ в Пинске

Время (UTC), дата Ветер
(напр.,м/с)
 
Видим.   Явления Облачность Т
(С)
Тd
(С)
f
(%)
Тe
(С)
Тes
(С)
Комфортность P
(гПа)
Po
(гПа)
Тmin
(С)
Tmax
(С)
R
(мм)
R24
(мм)
S
(см)
03 8.12 ЮВ 4 3100 м дымка {морось} 10/10 270 м
[St]
+0.6 +0.6 100 -5 -5 по сезону 1005.0 987.4
06 8.12 ЮВ 4 3200 м слабая морось 10/10 210 м
[St]
+0.9 +0.9 100 -5 -5 по сезону 1003.8 986.2 +0.1 1 1
09 8.12 Ю 2 3400 м слабый дождь {морось} 10/10 240 м
[Frnb Ns]
+1.8 +1.8 100 -2 -2 по сезону 1004.0 986.5
12 8.12 ЮЗ 3 3600 м слабый дождь 10/10 240 м
[Frnb Ns]
+2.7 +2.6 99 -2 -2 по сезону 1003.4 986.0
15 8.12 ЮЗ 2 3400 м слабый дождь 10/10 210 м
[Frnb Ns]
+3.9 +3.8 99 +1 +1 тепло 1004.0 986.6
18 8.12 З 2 3800 м дымка {дождь} 10/10 240 м
[St]
+4.3 +4.0 98 +1 +1 тепло 1005.4 988.0 +4.4 4
21 8.12 ЮЗ 1 3800 м дымка 9/9 1140 м
[Sc]
+3.2 +3.0 99 +1 +1 тепло 1006.1 988.6
00 9.12 Ю 1 300 м туман ?/? 0.0 0.0 100 -2 -2 по сезону 1006.1 988.4
03 9.12 Ю 1 1500 м в посл. час туман 3/0
[Ac trans]
-0.6 -0.6 100 -3 -3 по сезону 1004.3 986.6
06 9.12 Ю 1 3400 м дымка {туман} ясно -1.0 -1.0 100 -3 -3 по сезону 1003.2 985.5 -1.0
09 9.12 ЮВ 2 3600 м дымка 9/9 840 м
[Sc]
+0.7 +0.5 99 -3 -3 по сезону 1002.0 984.4
12 9.12 ЮВ 3 9000 м дымка 4/0
[Ac trans]
+4.3 +2.5 88 +1 +1 тепло 999.1 981.8
15 9.12 ЮВ 3 9000 м дымка 9/9 660 м
[Sc]
+3.6 +2.0 89 -0 -0 по сезону 998.1 980.8
18 9.12 Ю 3 8000 м в посл. час дождь 9/9 700 м
[Sc]
+3.2 +2.5 95 -1 -1 по сезону 997.5 980.2 +5.0 0.3
21 9.12 ЮЗ 2 3900 м дымка 10/10 300 м
[St]
+3.4 +2.9 97 0 0 тепло 997.6 980.3
00 10.12 Ю 3 3900 м дымка {дождь} 10/10 240 м
[St]
+3.5 +2.9 96 -1 -1 тепло 998.3 981.0
03 10.12 ЮЗ 2 3900 м дымка 10/10 210 м
[St]
+3.5 +3.1 97 0 0 тепло 998.7 981.4
06 10.12 Ю 1 3100 м дымка {дождь, морось} 10/10 330 м
[St]
+3.3 +3.1 99 +2 +2 тепло 999.3 982.0 +3.2 0.1
09 10.12 Ю 2 3500 м дымка {дождь} 10/10 360 м
[St]
+4.2 +3.9 98 +1 +1 тепло 1000.2 982.9
12 10.12 Ю 2 3600 м в посл. час дождь 10/10 270 м
[St]
+4.8 +4.3 97 +2 +2 тепло 1000.2 982.9
15 10.12 ЮЗ 1 3600 м слабый дождь 10/10 270 м
[Frnb Ns]
+3.7 +3.3 97 +2 +2 тепло 1001.6 984.3
18 10.12 З 3 3500 м дымка {дождь} 10/10 210 м
[St]
+3.0 +2.8 99 -1 -1 по сезону 1003.0 985.6 +4.9 2
21 10.12 СЗ 2 3700 м слабый дождь 10/10 240 м
[Frnb Ns]
+1.9 +1.5 97 -2 -2 по сезону 1005.1 987.6
00 11.12 З 2 3500 м слабый дождь 10/10 240 м
[Frnb Ns]
+2.1 +1.8 98 -1 -1 по сезону 1006.5 989.0
03 11.12 СЗ 2 3800 м дымка {дождь} 10/10 270 м
[St]
+1.9 +1.1 94 -2 -2 по сезону 1007.6 990.0
06 11.12 З 2 6000 м дымка {дождь} 10/10 300 м
[St]
+1.5 +0.7 94 -2 -2 по сезону 1009.2 991.6 +1.4 0.3
09 11.12 ЮЗ 1 9000 м дымка 8/6 960 м
[Sc Ac trans]
+2.3 +0.7 89 +1 +1 тепло 1010.8 993.2
12 11.12 СЗ 2 9000 м дымка 10/10 420 м
[St]
+2.3 +0.5 88 -1 -1 по сезону 1011.7 994.1
15 11.12 штиль 0 6000 м дымка 10/10 360 м
[St]
+0.9 +0.2 95 -0 -0 по сезону 1013.6 995.9
18 11.12 СЗ 1 3500 м дымка 9/9 800 м
[Sc]
+0.3 0.0 98 -2 -2 по сезону 1014.9 997.1 +2.5
21 11.12 СЗ 1 3700 м дымка 9/0
[Ac und]
-0.1 -0.6 96 -2 -2 по сезону 1016.0 998.1
00 12.12 З 1 3600 м дымка 9/0
[Ac und]
-0.4 -0.8 97 -3 -3 по сезону 1016.6 998.7
03 12.12 З 2 3600 м дымка 10/10 210 м
[St]
-0.3 -0.7 97 -4 -4 по сезону 1016.7 998.8
06 12.12 СЗ 2 3100 м слабый снег 10/10 210 м
[Frnb Ns]
-0.1 -0.3 99 -4 -4 по сезону 1017.6 999.7 -0.5 0.2 <0.5
09 12.12 С 2 2100 м в посл. час снег 10/10 150 м
[St]
+0.3 +0.3 100 -4 -4 по сезону 1018.0 1000.1
12 12.12 С 3 3600 м дымка {снег, туман} 10/10 240 м
[St]
+1.2 +1.0 99 -4 -4 по сезону 1017.8 1000.0
15 12.12 СЗ 3 6000 м дымка 10/10 300 м
[St]
+1.1 +0.4 95 -4 -4 по сезону 1018.3 1000.5
18 12.12 С 3 6000 м дымка 10/10 240 м
[St]
+1.5 +0.8 95 -3 -3 по сезону 1018.6 1000.8 +1.5 0.3
21 12.12 СВ 4 8000 м дымка 10/10 360 м
[St]
+1.6 +0.5 92 -4 -4 по сезону 1018.7 1000.9
00 13.12 С 4 9000 м дымка 10/10 420 м
[St]
+1.6 0.0 89 -4 -4 по сезону 1018.3 1000.5
03 13.12 СВ 3
{10}
10 км 10/10 420 м
[St]
+1.0 -0.6 89 -4 -4 по сезону 1018.4 1000.6
06 13.12 С 4 10 км 10/10 450 м
[St]
+0.8 -1.4 85 -4 -4 по сезону 1018.4 1000.6 +0.7
09 13.12 СВ 5 9000 м слабый снег 10/10 240 м
[Frnb Ns]
+0.5 -1.8 85 -5 -5 по сезону 1018.9 1001.0
12 13.12 С 4 8000 м слабый снег 10/10 240 м
[Frnb Ns]
+0.3 -1.5 88 -5 -5 по сезону 1018.8 1000.9
15 13.12 С 3 8000 м слабый снег 10/0 420 м
[As op]
-0.2 -1.4 92 -5 -5 по сезону 1019.4 1001.5
18 13.12 С 3 6000 м слабый снег 10/10 270 м
[Frnb Ns]
-0.6 -1.4 94 -6 -6 по сезону 1019.9 1001.9 +0.8 0.8
21 13.12 С 3 7000 м дымка {снег} 10/10 270 м
[St]
-0.4 -1.1 95 -5 -5 по сезону 1020.8 1002.8
00 14.12 С 2 3900 м в посл. час снег 10/10 240 м
[St]
-0.4 -0.8 97 -4 -4 по сезону 1021.4 1003.4
03 14.12 СВ 2 3900 м дымка 10/10 210 м
[St]
-0.1 -0.7 96 -4 -4 по сезону 1022.3 1004.3
06 14.12 СВ 1 3600 м дымка 10/10 210 м
[St]
0.0 -0.5 96 -2 -2 по сезону 1023.7 1005.7 -0.6 0.2 1
09 14.12 СВ 2 3800 м дымка {дождь, морось} 10/10 210 м
[St]
+0.5 -0.2 95 -3 -3 по сезону 1025.4 1007.4
12 14.12 СВ 1 7000 м слабый дождь {морось} 10/10 270 м
[Frnb Ns]
+0.7 -0.5 92 -1 -1 по сезону 1026.1 1008.1
15 14.12 СВ 2 6000 м в посл. час дождь 10/10 240 м
[St]
+0.5 -0.4 94 -3 -3 по сезону 1027.0 1009.0
18 14.12 СВ 1 3700 м слабый снег {дождь} 10/10 210 м
[Frnb Ns]
+0.2 -0.3 96 -2 -2 по сезону 1028.1 1010.1 +0.7 0.0
21 14.12 В 1 3600 м дымка {снег, дождь} 10/10 240 м
[St]
0.0 -0.5 96 -2 -2 по сезону 1028.9 1010.8

 

Местоположение метеостанции Пинск (Брестская область, Беларусь): широта 52.12 долгота 26.06 высота над уровнем моря 142 м.

В архиве по умолчанию представлена погода в Пинске за последнюю неделю. Архивные данные за месяц целиком и за предыдущие месяцы, начиная с января 2011 года, Вы можете получить, выбрав интересующий диапазон дат из раскрывающегося списка и нажав кнопку "Ввод!".


*Определитесь, кто Вы:
робот инопланетянин человек

Внимание! Время в таблицах - всемирное. Для получения местного времени необходимо прибавить поправку, которая в Пинске равна 3 ч.

Смотрите также архив погоды в соседних городах и на ближайших метеорологических станциях:

Погода в Полесской (Брестская область, Беларусь) (48 км)
Погода в Дрогичине (Брестская область, Беларусь) (66 км)
Погода в Любешове (Волынская область, Украина) (74 км)
Погода в Ганцевичах (Брестская область, Беларусь) (75 км)
Погода в Ивацевичах (Брестская область, Беларусь) (80 км)
Погода в Маневичах (Волынская область, Украина) (100 км)
Погода в Сарнах (Ровенская область, Украина) (101 км)
Погода в Барановичах (Брестская область, Беларусь) (113 км)
Погода в Пружанах (Брестская область, Беларусь) (117 км)
Погода в Житковичах (Гомельская область, Беларусь) (124 км)

Пояснения к столбцам:

Ветер - указаны скорость ветра в м/с - средняя за 10 мин, порывы в срок и между сроками (в фигурных скобках) и направление, откуда дует ветер: С - северный, СВ - северо-восточный, В - восточный, ЮВ - юго-восточный, Ю - южный, ЮЗ - юго-западный, З - западный, СЗ - северо-западный.
Видимость - горизонтальная дальность видимости в метрах или километрах. При видимости от 1 до 10 км при отсутствии осадков обычно наблюдается дымка, при ухудшении видимости до 1 км и менее - туман. В сухую погоду видимость может ухудшаться дымом, пылью или мглою.
Явления - указаны атмосферные явления, наблюдавшиеся в срок или в последний час перед сроком; фигурными скобками обозначены явления, наблюдавшиеся между сроками (за 1-3 часа до срока); квадратными скобками обозначены град или гололедные отложения с указанием их диаметра в мм.
Облачность - указаны через наклонную черту общая и нижняя облачность в баллах и высота нижней границы облаков в метрах; квадратными скобками обозначены формы облаков: Ci - перистые, Cs - перисто-слоистые, Cc - перисто-кучевые, Ac - высококучевые, As - высокослоистые, Sc - слоисто-кучевые, Ns - слоисто-дождевые, Cu - кучевые, Cb - кучево-дождевые. Подробнее классификацию облаков см. в Атласе облаков (PDF).
T - Температура воздуха - температура, измеренная на высоте 2 м над землей.
Td - Температура точки росы - температура, при понижении до которой содержащийся в воздухе водяной пар достигнет насыщения.
f - Относительная влажность воздуха - влажноcть воздуха, измеренная на высоте 2 м над землей.
Te - Эффективная температура - температура, которую ощущает одетый по сезону человек в тени. Характеристика душности погоды. При расчете учитывается влияние влажности воздуха и скорости ветра на теплоощущения человека.
Tes - Эффективная температура на солнце - температура, которую ощущает человек, с поправкой на солнечный нагрев. Характеристика знойности погоды. Зависит от высоты солнца над горизонтом, облачности и скорости ветра. Ночью, в пасмурную погоду, а также при ветре 12 м/с и более поправка равна нулю.
P - Атмосферное давление - приведенное к уровню моря атмосферное давление.
Po - Атмосферное давление - измеренное на уровне метеостанции атмосферное давление.
Tmin - Минимальная температура - минимум температуры воздуха на высоте 2 м над землей.
Tmax - Максимальная температура - максимум температуры воздуха на высоте 2 м над землей.
R - Количество осадков - Количество выпавших осадков за период времени, мм. При наведении курсора мыши на число - период времени, за который выпало указанное количество осадков.
R24 - Количество осадков - Количество выпавших осадков за 24 часа, мм.
S - Снежный покров - Высота снежного покрова, см. При наведении курсора мыши на число - состояние снежного покрова и степень покрытия местности в баллах.